Location: Newark
(34.0131°N, 4.3314°W)
Time: 06:48:35
(UTC+00:00)

Courier 1B - Pass Details

Date: 23 October 2019
Orbit: 963 x 1209 km, 28.3° (Epoch: 12 November)

Event Time Altitude Azimuth Distance (km) Brightness Sun altitude
Rises 18:53:17 0° 262° (W) 4,088 12.5 -17.0°
Reaches altitude 10° 18:56:10 10° 258° (WSW) 3,135 11.4 -17.6°
Maximum altitude 19:03:50 58° 182° (S) 1,383 8.2 -19.2°
Enters shadow 19:08:03 28° 115° (ESE) 2,077 8.7 -20.1°
